GW2490 Weather Reports


Display with metric or nautical units.
time (UTC)temp
F
wind
direction
speed
MPH
gust
MPH
rain 1hr
in
rain 24hr
in
rain mn
in
humidity
%
barometer
mb
20260504060237 0 0.0 0.0 0.00 0.00 0.00
20260504050732 0 0.0 0.0 0.00 0.00 0.00
20260504050457 71 319 3.0 4.0 0.00 0.00 0.00 40 1010.2
20260504050232 0 0.0 0.0 0.00 0.00 0.00
20260504045732 0 0.0 0.0 0.00 0.00 0.00
20260504045507 71 352 4.0 7.0 0.00 0.00 0.00 40 1010.3
20260504044957 71 356 2.0 5.0 0.00 0.00 0.00 41 1010.3
20260504044729 0 0.0 0.0 0.00 0.00 0.00
20260504044457 71 333 4.0 6.0 0.00 0.00 0.00 40 1010.3
20260504043957 71 319 3.0 7.0 0.00 0.00 0.00 40 1010.2
20260504043729 0 0.0 0.0 0.00 0.00 0.00
20260504043457 71 332 4.0 5.0 0.00 0.00 0.00 40 1010.2
20260504043229 0 0.0 0.0 0.00 0.00 0.00
20260504042957 71 348 5.0 8.0 0.00 0.00 0.00 40 1010.2
20260504042730 0 0.0 0.0 0.00 0.00 0.00
20260504042457 71 338 5.0 10.0 0.00 0.00 0.00 40 1010.2
20260504041957 71 326 4.0 7.0 0.00 0.00 0.00 40 1010.2
20260504041729 0 0.0 0.0 0.00 0.00 0.00
20260504041457 71 349 5.0 11.0 0.00 0.00 0.00 40 1010.2
20260504041230 0 0.0 0.0 0.00 0.00 0.00
20260504040957 71 336 5.0 8.0 0.00 0.00 0.00 40 1010.2
20260504040730 0 0.0 0.0 0.00 0.00 0.00
20260504040457 71 336 3.0 6.0 0.00 0.00 0.00 40 1010.2
20260504040231 0 0.0 0.0 0.00 0.00 0.00
20260504035957 71 338 4.0 7.0 0.00 0.00 0.00 40 1010.2
20260504035727 0 0.0 0.0 0.00 0.00 0.00
20260504035457 71 348 5.0 8.0 0.00 0.00 0.00 41 1010.2
20260504035227 0 0.0 0.0 0.00 0.00 0.00
20260504034957 71 327 4.0 8.0 0.00 0.00 0.00 41 1010.3
20260504034728 0 0.0 0.0 0.00 0.00 0.00
20260504034458 71 336 6.0 9.0 0.00 0.00 0.00 40 1010.3
20260504034227 0 0.0 0.0 0.00 0.00 0.00
20260504033957 71 351 4.0 7.0 0.00 0.00 0.00 40 1010.2
20260504033728 0 0.0 0.0 0.00 0.00 0.00
20260504033457 71 330 4.0 7.0 0.00 0.00 0.00 40 1010.3
20260504033227 0 0.0 0.0 0.00 0.00 0.00
20260504032957 72 1 5.0 8.0 0.00 0.00 0.00 40 1010.2
20260504032727 0 0.0 0.0 0.00 0.00 0.00
20260504032457 72 0 4.0 9.0 0.00 0.00 0.00 40 1010.1
20260504031958 72 341 4.0 8.0 0.00 0.00 0.00 40 1010.2
20260504031457 73 338 4.0 7.0 0.00 0.00 0.00 39 1010.2
20260504031228 0 0.0 0.0 0.00 0.00 0.00
20260504031000 73 334 4.0 7.0 0.00 0.00 0.00 39 1010.3
20260504030728 0 0.0 0.0 0.00 0.00 0.00
20260504030457 73 356 4.0 8.0 0.00 0.00 0.00 39 1010.3
20260504030228 0 0.0 0.0 0.00 0.00 0.00
20260504025958 74 329 3.0 6.0 0.00 0.00 0.00 39 1010.2
20260504025728 0 0.0 0.0 0.00 0.00 0.00
20260504025457 74 330 6.0 9.0 0.00 0.00 0.00 39 1010.3
20260504025227 0 0.0 0.0 0.00 0.00 0.00
20260504025007 74 337 5.0 8.0 0.00 0.00 0.00 39 1010.3
20260504024725 0 0.0 0.0 0.00 0.00 0.00
20260504024457 75 347 5.0 9.0 0.00 0.00 0.00 38 1010.3
20260504024226 0 0.0 0.0 0.00 0.00 0.00
20260504023957 75 311 2.0 4.0 0.00 0.00 0.00 40 1010.3
20260504023726 0 0.0 0.0 0.00 0.00 0.00
20260504023457 75 317 3.0 6.0 0.00 0.00 0.00 39 1010.3
20260504023226 0 0.0 0.0 0.00 0.00 0.00
20260504022957 75 325 4.0 6.0 0.00 0.00 0.00 39 1010.4
20260504022457 75 312 4.0 8.0 0.00 0.00 0.00 39 1010.4
20260504022226 0 0.0 0.0 0.00 0.00 0.00
20260504021958 75 314 3.0 6.0 0.00 0.00 0.00 39 1010.5
20260504021726 0 0.0 0.0 0.00 0.00 0.00
20260504021457 75 326 4.0 8.0 0.00 0.00 0.00 39 1010.6
20260504021226 0 0.0 0.0 0.00 0.00 0.00
20260504020957 75 320 4.0 7.0 0.00 0.00 0.00 40 1010.6
20260504020727 0 0.0 0.0 0.00 0.00 0.00
20260504020457 74 337 6.0 10.0 0.00 0.00 0.00 39 1010.6
20260504020226 0 0.0 0.0 0.00 0.00 0.00
20260504020002 74 313 6.0 8.0 0.00 0.00 0.00 41 1010.7
20260504015727 0 0.0 0.0 0.00 0.00 0.00
20260504015458 74 320 6.0 7.0 0.00 0.00 0.00 41 1010.7
20260504015224 0 0.0 0.0 0.00 0.00 0.00
20260504014957 74 300 6.0 9.0 0.00 0.00 0.00 43 1010.7
20260504014724 0 0.0 0.0 0.00 0.00 0.00
20260504014457 74 311 6.0 9.0 0.00 0.00 0.00 42 1010.7
20260504014223 0 0.0 0.0 0.00 0.00 0.00
20260504013958 74 309 7.0 11.0 0.00 0.00 0.00 43 1010.7
20260504013724 0 0.0 0.0 0.00 0.00 0.00
20260504013458 74 306 4.0 8.0 0.00 0.00 0.00 43 1010.7
20260504013224 0 0.0 0.0 0.00 0.00 0.00
20260504012957 73 308 6.0 8.0 0.00 0.00 0.00 44 1010.7
20260504012724 0 0.0 0.0 0.00 0.00 0.00
20260504012457 73 301 7.0 11.0 0.00 0.00 0.00 46 1010.8
20260504012224 0 0.0 0.0 0.00 0.00 0.00
20260504011957 74 308 6.0 9.0 0.00 0.00 0.00 45 1010.9
20260504011457 74 305 5.0 9.0 0.00 0.00 0.00 45 1010.9
20260504010958 74 318 7.0 9.0 0.00 0.00 0.00 43 1011.0
20260504010724 0 0.0 0.0 0.00 0.00 0.00
20260504010457 73 310 6.0 9.0 0.00 0.00 0.00 43 1011.0
20260504010221 0 0.0 0.0 0.00 0.00 0.00
20260504005957 73 320 6.0 8.0 0.00 0.00 0.00 45 1011.0
20260504005722 0 0.0 0.0 0.00 0.00 0.00
20260504005457 73 321 5.0 8.0 0.00 0.00 0.00 46 1011.1
20260504005222 0 0.0 0.0 0.00 0.00 0.00
20260504004957 73 312 6.0 10.0 0.00 0.00 0.00 45 1011.1
20260504004722 0 0.0 0.0 0.00 0.00 0.00
20260504004457 74 307 5.0 8.0 0.00 0.00 0.00 44 1011.1
20260504004222 0 0.0 0.0 0.00 0.00 0.00
20260504003958 73 315 4.0 8.0 0.00 0.00 0.00 44 1011.2
20260504003721 0 0.0 0.0 0.00 0.00 0.00
20260504003458 74 314 6.0 9.0 0.00 0.00 0.00 45 1011.2
20260504003222 0 0.0 0.0 0.00 0.00 0.00
20260504002957 73 313 5.0 7.0 0.00 0.00 0.00 46 1011.3
20260504002721 0 0.0 0.0 0.00 0.00 0.00
20260504002457 74 311 5.0 8.0 0.00 0.00 0.00 44 1011.2
20260504002222 0 0.0 0.0 0.00 0.00 0.00
20260504001957 74 298 4.0 9.0 0.00 0.00 0.00 44 1011.3
20260504001722 0 0.0 0.0 0.00 0.00 0.00
20260504001457 73 315 5.0 10.0 0.00 0.00 0.00 45 1011.4
20260504001221 0 0.0 0.0 0.00 0.00 0.00
20260504000957 73 315 4.0 8.0 0.00 0.00 0.00 45 1011.4
20260504000722 0 0.0 0.0 0.00 0.00 0.00
20260504000457 73 309 5.0 8.0 0.00 0.00 0.00 48 1011.5
20260504000223 0 0.0 0.0 0.00 0.00 0.00
20260503235957 73 309 4.0 6.0 0.00 0.00 0.00 47 1011.5
20260503235457 73 309 6.0 8.0 0.00 0.00 0.00 50 1011.6
20260503235220 0 0.0 0.0 0.00 0.00 0.00
20260503234957 75 316 6.0 8.0 0.00 0.00 0.00 46 1011.6
20260503234720 0 0.0 0.0 0.00 0.00 0.00
20260503234457 76 303 6.0 9.0 0.00 0.00 0.00 42 1011.6
20260503234219 0 0.0 0.0 0.00 0.00 0.00
20260503233957 76 306 5.0 9.0 0.00 0.00 0.00 42 1011.6
20260503233721 0 0.0 0.0 0.00 0.00 0.00
20260503233457 76 309 4.0 6.0 0.00 0.00 0.00 41 1011.7
20260503233217 0 0.0 0.0 0.00 0.00 0.00
20260503232958 75 310 3.0 6.0 0.00 0.00 0.00 42 1011.7
20260503232717 0 0.0 0.0 0.00 0.00 0.00
20260503232457 74 311 5.0 9.0 0.00 0.00 0.00 43 1011.8
20260503232219 0 0.0 0.0 0.00 0.00 0.00
20260503231958 73 307 3.0 5.0 0.00 0.00 0.00 44 1011.9
20260503231717 0 0.0 0.0 0.00 0.00 0.00
20260503231457 73 303 4.0 9.0 0.00 0.00 0.00 45 1011.9
20260503231217 0 0.0 0.0 0.00 0.00 0.00
20260503230957 73 294 5.0 7.0 0.00 0.00 0.00 45 1012.0
20260503230717 0 0.0 0.0 0.00 0.00 0.00
20260503230457 73 303 6.0 8.0 0.00 0.00 0.00 45 1012.0
20260503230217 0 0.0 0.0 0.00 0.00 0.00
20260503225958 72 305 6.0 9.0 0.00 0.00 0.00 47 1012.1
20260503225715 0 0.0 0.0 0.00 0.00 0.00
20260503225457 71 303 6.0 11.0 0.00 0.00 0.00 47 1012.1
20260503225214 0 0.0 0.0 0.00 0.00 0.00
20260503224957 71 312 6.0 10.0 0.00 0.00 0.00 50 1012.3
20260503224714 0 0.0 0.0 0.00 0.00 0.00
20260503224457 71 311 6.0 10.0 0.00 0.00 0.00 49 1012.3
20260503224215 0 0.0 0.0 0.00 0.00 0.00
20260503223958 71 324 4.0 8.0 0.00 0.00 0.00 49 1012.3
20260503223715 0 0.0 0.0 0.00 0.00 0.00
20260503223457 72 323 6.0 9.0 0.00 0.00 0.00 47 1012.4
20260503223215 0 0.0 0.0 0.00 0.00 0.00
20260503222957 71 298 6.0 9.0 0.00 0.00 0.00 47 1012.4
20260503222715 0 0.0 0.0 0.00 0.00 0.00
20260503222457 71 298 6.0 8.0 0.00 0.00 0.00 48 1012.4
20260503222215 0 0.0 0.0 0.00 0.00 0.00
20260503221957 71 317 8.0 9.0 0.00 0.00 0.00 50 1012.6
20260503221457 71 303 6.0 9.0 0.00 0.00 0.00 50 1012.5
20260503221220 0 0.0 0.0 0.00 0.00 0.00
20260503220957 71 312 7.0 11.0 0.00 0.00 0.00 50 1012.7
20260503220715 0 0.0 0.0 0.00 0.00 0.00
20260503220457 71 293 5.0 9.0 0.00 0.00 0.00 50 1012.8
20260503220215 0 0.0 0.0 0.00 0.00 0.00
20260503215957 71 309 6.0 9.0 0.00 0.00 0.00 49 1012.8
20260503215457 70 305 7.0 12.0 0.00 0.00 0.00 48 1012.8
20260503215216 0 0.0 0.0 0.00 0.00 0.00
20260503214957 70 302 5.0 8.0 0.00 0.00 0.00 48 1012.8
20260503214712 0 0.0 0.0 0.00 0.00 0.00
20260503214457 70 307 8.0 12.0 0.00 0.00 0.00 49 1012.8
20260503214212 0 0.0 0.0 0.00 0.00 0.00
20260503213957 70 305 6.0 7.0 0.00 0.00 0.00 51 1013.1
20260503213713 0 0.0 0.0 0.00 0.00 0.00
20260503213458 69 313 5.0 9.0 0.00 0.00 0.00 52 1013.1
20260503213212 0 0.0 0.0 0.00 0.00 0.00
20260503212957 69 303 5.0 9.0 0.00 0.00 0.00 54 1013.1
20260503212713 0 0.0 0.0 0.00 0.00 0.00
20260503212457 70 312 4.0 7.0 0.00 0.00 0.00 52 1013.2
20260503212209 0 0.0 0.0 0.00 0.00 0.00
20260503211959 70 305 6.0 8.0 0.00 0.00 0.00 50 1013.1
20260503211458 69 312 5.0 9.0 0.00 0.00 0.00 50 1013.2
20260503211211 0 0.0 0.0 0.00 0.00 0.00
20260503210957 69 306 7.0 12.0 0.00 0.00 0.00 50 1013.2
20260503210710 0 0.0 0.0 0.00 0.00 0.00
20260503210458 69 308 7.0 9.0 0.00 0.00 0.00 51 1013.3
20260503210210 0 0.0 0.0 0.00 0.00 0.00
20260503205957 69 303 3.0 7.0 0.00 0.00 0.00 51 1013.4
20260503205457 69 301 6.0 10.0 0.00 0.00 0.00 50 1013.5
20260503205211 0 0.0 0.0 0.00 0.00 0.00
20260503204957 69 302 4.0 7.0 0.00 0.00 0.00 51 1013.5
20260503204708 0 0.0 0.0 0.00 0.00 0.00
20260503204457 69 298 5.0 7.0 0.00 0.00 0.00 51 1013.5
20260503204208 0 0.0 0.0 0.00 0.00 0.00
20260503203957 69 304 6.0 9.0 0.00 0.00 0.00 52 1013.6
20260503203707 0 0.0 0.0 0.00 0.00 0.00
20260503203459 68 311 2.0 5.0 0.00 0.00 0.00 52 1013.7
20260503203208 0 0.0 0.0 0.00 0.00 0.00
20260503202957 68 299 5.0 8.0 0.00 0.00 0.00 54 1013.8
20260503202708 0 0.0 0.0 0.00 0.00 0.00
20260503202457 67 278 4.0 8.0 0.00 0.00 0.00 56 1014.0
20260503202208 0 0.0 0.0 0.00 0.00 0.00
20260503201957 66 298 4.0 7.0 0.00 0.00 0.00 56 1014.0
20260503201708 0 0.0 0.0 0.00 0.00 0.00
20260503201458 66 310 6.0 9.0 0.00 0.00 0.00 57 1014.0
20260503201208 0 0.0 0.0 0.00 0.00 0.00
20260503200957 66 312 6.0 9.0 0.00 0.00 0.00 57 1014.2
20260503200708 0 0.0 0.0 0.00 0.00 0.00
20260503200457 66 303 6.0 9.0 0.00 0.00 0.00 56 1014.1
20260503195957 66 313 4.0 7.0 0.00 0.00 0.00 56 1014.2
20260503195706 0 0.0 0.0 0.00 0.00 0.00
20260503195458 65 316 4.0 7.0 0.00 0.00 0.00 57 1014.3
20260503195203 0 0.0 0.0 0.00 0.00 0.00
20260503194957 65 308 6.0 9.0 0.00 0.00 0.00 56 1014.3
20260503194458 65 314 6.0 10.0 0.00 0.00 0.00 58 1014.2
20260503193957 64 314 8.0 11.0 0.00 0.00 0.00 58 1014.2
20260503193707 0 0.0 0.0 0.00 0.00 0.00
20260503193458 65 323 6.0 10.0 0.00 0.00 0.00 59 1014.2
20260503193203 0 0.0 0.0 0.00 0.00 0.00
20260503192957 64 318 6.0 10.0 0.00 0.00 0.00 60 1014.3
20260503192703 0 0.0 0.0 0.00 0.00 0.00
20260503192457 64 316 6.0 9.0 0.00 0.00 0.00 61 1014.3
20260503192203 0 0.0 0.0 0.00 0.00 0.00
20260503191957 64 311 5.0 7.0 0.00 0.00 0.00 61 1014.3
20260503191701 0 0.0 0.0 0.00 0.00 0.00
20260503191457 64 314 6.0 9.0 0.00 0.00 0.00 61 1014.3
20260503191201 0 0.0 0.0 0.00 0.00 0.00
20260503190957 64 317 5.0 9.0 0.00 0.00 0.00 61 1014.4
20260503190702 0 0.0 0.0 0.00 0.00 0.00
20260503190457 64 314 4.0 7.0 0.00 0.00 0.00 62 1014.5
20260503190200 0 0.0 0.0 0.00 0.00 0.00
20260503185957 64 313 5.0 8.0 0.00 0.00 0.00 61 1014.5
20260503185701 0 0.0 0.0 0.00 0.00 0.00
20260503185457 64 306 6.0 10.0 0.00 0.00 0.00 62 1014.5
20260503185200 0 0.0 0.0 0.00 0.00 0.00
20260503184957 64 315 6.0 9.0 0.00 0.00 0.00 61 1014.5
20260503184657 0 0.0 0.0 0.00 0.00 0.00
20260503184457 63 307 4.0 8.0 0.00 0.00 0.00 62 1014.5
20260503184158 0 0.0 0.0 0.00 0.00 0.00
20260503183957 62 316 6.0 9.0 0.00 0.00 0.00 65 1014.6
20260503183657 0 0.0 0.0 0.00 0.00 0.00
20260503183458 62 306 7.0 9.0 0.00 0.00 0.00 67 1014.6
20260503183158 0 0.0 0.0 0.00 0.00 0.00
20260503182957 62 307 6.0 11.0 0.00 0.00 0.00 67 1014.8
20260503182658 0 0.0 0.0 0.00 0.00 0.00
20260503182457 62 320 6.0 8.0 0.00 0.00 0.00 66 1014.8
20260503182158 0 0.0 0.0 0.00 0.00 0.00
20260503181957 62 320 4.0 6.0 0.00 0.00 0.00 68 1014.9
20260503181658 0 0.0 0.0 0.00 0.00 0.00
20260503181457 61 304 5.0 7.0 0.00 0.00 0.00 68 1014.9
20260503181159 0 0.0 0.0 0.00 0.00 0.00
20260503180957 61 295 5.0 8.0 0.00 0.00 0.00 69 1014.9
20260503180659 0 0.0 0.0 0.00 0.00 0.00
20260503180457 61 294 6.0 10.0 0.00 0.00 0.00 69 1014.9
20260503180158 0 0.0 0.0 0.00 0.00 0.00
20260503175957 61 304 6.0 8.0 0.00 0.00 0.00 69 1014.9
20260503175655 0 0.0 0.0 0.00 0.00 0.00
20260503175458 61 309 5.0 8.0 0.00 0.00 0.00 70 1014.9
20260503175156 0 0.0 0.0 0.00 0.00 0.00
20260503174957 60 315 4.0 6.0 0.00 0.00 0.00 70 1015.0
20260503174655 0 0.0 0.0 0.00 0.00 0.00
20260503174457 60 325 5.0 8.0 0.00 0.00 0.00 71 1015.0
20260503174156 0 0.0 0.0 0.00 0.00 0.00
20260503173958 60 309 5.0 11.0 0.00 0.00 0.00 70 1015.0
20260503173657 0 0.0 0.0 0.00 0.00 0.00
20260503173457 60 301 4.0 8.0 0.00 0.00 0.00 70 1015.0
20260503173158 0 0.0 0.0 0.00 0.00 0.00
20260503172957 60 314 6.0 9.0 0.00 0.00 0.00 72 1015.1
20260503172655 0 0.0 0.0 0.00 0.00 0.00
20260503172459 60 310 6.0 9.0 0.00 0.00 0.00 72 1015.1
20260503172156 0 0.0 0.0 0.00 0.00 0.00
20260503171957 59 309 4.0 6.0 0.00 0.00 0.00 72 1015.2
20260503171656 0 0.0 0.0 0.00 0.00 0.00
20260503171457 59 312 4.0 5.0 0.00 0.00 0.00 72 1015.2
20260503171156 0 0.0 0.0 0.00 0.00 0.00
20260503170957 59 297 6.0 9.0 0.00 0.00 0.00 71 1015.1
20260503170656 0 0.0 0.0 0.00 0.00 0.00
20260503170457 60 306 4.0 6.0 0.00 0.00 0.00 69 1015.1
20260503170156 0 0.0 0.0 0.00 0.00 0.00
20260503160148 0 0.0 0.0 0.00 0.00 0.00
20260503150957 56 310 4.0 5.0 0.00 0.00 0.00 75 1015.4
20260503150650 0 0.0 0.0 0.00 0.00 0.00
20260503150457 56 321 4.0 8.0 0.00 0.00 0.00 76 1015.4
20260503150155 0 0.0 0.0 0.00 0.00 0.00
20260503130957 55 319 7.0 9.0 0.00 0.00 0.00 77 1014.8
20260503130640 0 0.0 0.0 0.00 0.00 0.00
20260503130457 55 324 7.0 9.0 0.00 0.00 0.00 78 1014.9
20260503130142 0 0.0 0.0 0.00 0.00 0.00
20260503120131 0 0.0 0.0 0.00 0.00 0.00
20260503110629 0 0.0 0.0 0.00 0.00 0.00
20260503110457 59 317 5.0 8.0 0.00 0.00 0.00 70 1015.1
20260503100125 0 0.0 0.0 0.00 0.00 0.00
20260503090457 62 329 9.0 18.0 0.00 0.00 0.00 64 1015.1
20260503090123 0 0.0 0.0 0.00 0.00 0.00
20260503081458 63 332 6.0 10.0 0.00 0.00 0.00 59 1015.2
20260503081121 0 0.0 0.0 0.00 0.00 0.00
20260503080957 64 321 6.0 11.0 0.00 0.00 0.00 58 1015.3
20260503080457 64 326 7.0 9.0 0.00 0.00 0.00 57 1015.2
20260503080121 0 0.0 0.0 0.00 0.00 0.00
20260503072457 67 313 4.0 10.0 0.00 0.00 0.00 49 1015.2
20260503071958 67 311 5.0 8.0 0.00 0.00 0.00 48 1015.2
20260503071619 0 0.0 0.0 0.00 0.00 0.00
20260503071457 67 320 6.0 9.0 0.00 0.00 0.00 48 1015.3
20260503071118 0 0.0 0.0 0.00 0.00 0.00
20260503070957 67 324 4.0 8.0 0.00 0.00 0.00 47 1015.3
20260503070618 0 0.0 0.0 0.00 0.00 0.00
20260503070457 67 325 6.0 8.0 0.00 0.00 0.00 47 1015.3